Whiteman AFB, MO

6:56 AM CST on December 08, 2016 (GMT -0600)
Whiteman Air Force Base

Weather History for KSZL - September, 2013

Change the Weather History Date:

Tuesday, September 24, 2013

  Actual Average Record
Temperature  
Mean Temperature 66 °F -  
Max Temperature 77 °F 74 °F 90 °F (2007)
Min Temperature 56 °F 52 °F 44 °F (2011)
Cooling Degree Days 2    
Growing Degree Days 16 (Base 50)    
Moisture  
Dew Point 59 °F    
Average Humidity 82    
Maximum Humidity 100    
Minimum Humidity 56    
Precipitation  
Precipitation 0.00 in - - ()
Sea Level Pressure  
Sea Level Pressure 29.82 in    
Wind  
Wind Speed 9 mph (SW)    
Max Wind Speed 13 mph    
Max Gust Speed -    
Visibility 10 miles    
Events      
Averages and records for this station are not official NWS values.
T = Trace of Precipitation, MM = Missing Value Source: NWS Daily Summary

Daily Weather History Graph

Daily Weather History Graph

Search for Another Location

Airport or City:

Trip Planner

Search our weather history database for the weather conditions in past years. The results will help you decide how hot, cold, wet, or windy it might be!

Date:

Astronomy

Sep. 24, 2013 Rise Set
Actual Time 7:03 AM CDT 7:07 PM CDT
Civil Twilight 6:37 AM CDT 7:34 PM CDT
Nautical Twilight 6:06 AM CDT 8:04 PM CDT
Astronomical Twilight 5:34 AM CDT 8:36 PM CDT
Moon 10:29 PM CDT (9/24) 12:15 PM CDT (9/24)
Length of Visible Light 12h 56m
Length of Day
12h 03m
Waning Gibbous, 73% of the Moon is Illuminated
Sep 24
Waning Gibbous
Sep 26
Last Quarter
Oct 4
New
Oct 11
First Quarter
Oct 18
Full

Hourly Weather History & Observations

Time (CDT) Temp. Dew Point Humidity Pressure Visibility Wind Dir Wind Speed Gust Speed Precip Events Conditions
12:58 AM 62.1 °F 56.7 °F 82% 29.86 in 10.0 mi SSE 10.4 mph - N/A   Clear
1:58 AM 61.9 °F 57.4 °F 85% 29.84 in 10.0 mi South 11.5 mph - N/A   Clear
2:58 AM 61.3 °F 57.7 °F 88% 29.84 in 10.0 mi SSE 9.2 mph - N/A   Clear
3:58 AM 60.6 °F 58.1 °F 91% 29.83 in 10.0 mi South 8.1 mph - N/A   Partly Cloudy
4:58 AM 60.3 °F 58.6 °F 94% 29.83 in 10.0 mi South 10.4 mph - N/A   Clear
5:58 AM 60.3 °F 59.4 °F 97% 29.82 in 10.0 mi South 11.5 mph - N/A   Clear
6:58 AM 60.1 °F 59.5 °F 98% 29.81 in 10.0 mi South 10.4 mph - N/A   Scattered Clouds
7:58 AM 60.6 °F 60.1 °F 98% 29.81 in 10.0 mi South 8.1 mph - N/A   Scattered Clouds
8:58 AM 64.9 °F 60.1 °F 84% 29.81 in 10.0 mi South 9.2 mph - N/A   Scattered Clouds
9:58 AM 69.6 °F 59.2 °F 69% 29.81 in 10.0 mi SSW 10.4 mph - N/A   Scattered Clouds
10:58 AM 71.6 °F 59.5 °F 66% 29.81 in 10.0 mi SSW 8.1 mph - N/A   Scattered Clouds
11:58 AM 73.4 °F 59.5 °F 62% 29.81 in 10.0 mi SSW 5.8 mph - N/A   Partly Cloudy
12:58 PM 76.3 °F 59.7 °F 56% 29.81 in 10.0 mi SSW 11.5 mph - N/A   Mostly Cloudy
1:58 PM 75.7 °F 59.7 °F 57% 29.79 in 10.0 mi WSW 9.2 mph - N/A   Mostly Cloudy
2:58 PM 72.0 °F 59.5 °F 65% 29.81 in 10.0 mi West 12.7 mph - N/A   Mostly Cloudy
3:58 PM 69.1 °F 58.8 °F 70% 29.82 in 10.0 mi WSW 9.2 mph - N/A   Mostly Cloudy
4:58 PM 68.9 °F 58.6 °F 70% 29.82 in 10.0 mi West 5.8 mph - N/A   Mostly Cloudy
5:58 PM 67.3 °F 58.5 °F 73% 29.83 in 10.0 mi West 6.9 mph - N/A   Mostly Cloudy
6:58 PM 65.7 °F 59.5 °F 81% 29.83 in 10.0 mi West 4.6 mph - N/A   Mostly Cloudy
7:58 PM 64.8 °F 60.1 °F 85% 29.83 in 10.0 mi NW 4.6 mph - N/A   Mostly Cloudy
8:58 PM 61.9 °F 61.0 °F 97% 29.84 in 10.0 mi NW 4.6 mph - N/A   Mostly Cloudy
9:58 PM 60.6 °F 60.3 °F 99% 29.83 in 10.0 mi WNW 4.6 mph - N/A   Mostly Cloudy
10:58 PM 57.7 °F 57.7 °F 100% 29.84 in 10.0 mi Calm Calm - N/A   Scattered Clouds
11:58 PM 56.5 °F 56.5 °F 100% 29.83 in 10.0 mi WSW 3.5 mph - N/A   Clear